1508806800.85,19148,9.13,73080.3,-5.57,-6.63,-6.55,0,*57
1508806802.05,19149,9.06,73092.0,-5.55,-6.47,-6.51,0,*56
1508806803.27,19150,9.13,73082.3,-5.57,-6.51,-6.43,0,*58
1508806804.47,19151,9.13,73084.0,-5.55,-6.39,-6.47,0,*51
1508806805.67,19152,9.13,73092.0,-5.55,-6.47,-6.47,0,*5B
1508806806.87,19153,9.06,73088.5,-5.55,-6.59,-6.59,0,*5A
1508806808.11,19154,9.06,73084.8,-5.55,-6.63,-6.63,0,*5D
1508806809.31,19155,9.13,73074.3,-5.55,-6.59,-6.51,0,*54
1508806810.55,19156,9.13,73072.3,-5.55,-6.63,-6.63,0,*5F
1508806811.79,19157,9.13,73068.0,-5.55,-6.63,-6.63,0,*5E
1508806812.99,19158,9.13,73066.3,-5.55,-6.47,-6.51,0,*56
1508806814.2,19159,9.06,73078.3,-5.55,-6.63,-6.59,0,*59
1508806815.43,19160,9.06,73096.3,-5.57,-6.51,-6.43,0,*5B
1508806816.62,19161,9.13,73074.5,-5.55,-6.47,-6.39,0,*52
1508806817.82,19162,9.13,73084.5,-5.55,-6.39,-6.39,0,*58
1508806819.02,19163,9.06,73080.3,-5.55,-6.35,-6.35,0,*59
1508806820.24,19164,9.06,73074.5,-5.57,-6.39,-6.35,0,*50
1508806821.44,19165,9.06,73064.0,-5.55,-6.35,-6.35,0,*5F
1508806822.64,19166,9.06,73078.3,-5.55,-6.39,-6.31,0,*54
1508806823.84,19167,9.06,73068.0,-5.55,-6.35,-6.35,0,*5D
1508806825.04,19168,9.06,73076.8,-5.55,-6.35,-6.35,0,*52
1508806826.25,19169,9.06,73076.0,-5.55,-6.35,-6.31,0,*57
1508806827.45,19170,9.06,73082.5,-5.55,-6.35,-6.35,0,*5B
1508806828.65,19171,9.13,73086.8,-5.55,-6.47,-6.35,0,*5F
1508806829.87,19172,9.13,73078.8,-5.57,-6.43,-6.43,0,*5B
1508806831.1,19173,9.06,73074.8,-5.53,-6.47,-6.47,0,*5E
1508806832.32,19174,9.13,73078.5,-5.53,-6.47,-6.47,0,*59
1508806833.56,19175,9.06,73076.0,-5.53,-6.51,-6.51,0,*58
1508806834.75,19176,9.06,73074.3,-5.55,-6.47,-6.47,0,*5D
1508806835.96,19177,9.06,73078.5,-5.55,-6.51,-6.51,0,*5C
1508806837.15,19178,9.06,73082.3,-5.55,-6.51,-6.39,0,*5D
1508806838.35,19179,9.13,73086.5,-5.55,-6.39,-6.39,0,*52
1508806839.54,19180,9.06,73078.5,-5.55,-6.47,-6.39,0,*5D
1508806840.77,19181,9.06,73082.5,-5.57,-6.51,-6.43,0,*54
1508806841.96,19182,9.13,73080.0,-5.55,-6.47,-6.39,0,*5F
1508806843.15,19183,9.06,73078.3,-5.55,-6.47,-6.39,0,*5E
1508806844.35,19184,9.06,73076.8,-5.55,-6.43,-6.43,0,*50
1508806845.54,19185,9.06,73072.0,-5.55,-6.39,-6.43,0,*5C
1508806846.77,19186,9.06,73066.3,-5.57,-6.43,-6.43,0,*50
1508806847.96,19187,9.06,73072.0,-5.55,-6.39,-6.39,0,*53
1508806849.16,19188,9.06,73074.0,-5.55,-6.39,-6.35,0,*50
1508806850.38,19189,9.06,73076.3,-5.57,-6.43,-6.39,0,*52
1508806851.58,19190,9.06,73074.5,-5.55,-6.35,-6.35,0,*55
1508806852.8,19191,9.06,73074.0,-5.57,-6.39,-6.35,0,*5A
1508806854.02,19192,9.06,73068.8,-5.57,-6.39,-6.35,0,*59
1508806855.23,19193,9.06,73078.0,-5.55,-6.35,-6.31,0,*52
1508806856.43,19194,9.06,73088.3,-5.55,-6.35,-6.31,0,*55
1508806857.64,19195,9.06,73096.0,-5.55,-6.35,-6.31,0,*54
1508806858.84,19196,9.06,73098.3,-5.55,-6.35,-6.35,0,*53
1508806860.04,19197,9.06,73088.5,-5.55,-6.47,-6.35,0,*57
1508806861.23,19198,9.13,73058.5,-5.55,-6.39,-6.39,0,*5D
1508806862.46,19199,9.06,73058.8,-5.57,-6.51,-6.51,0,*5E
1508806863.65,19200,9.06,73064.3,-5.55,-6.47,-6.47,0,*5F
1508806864.84,19201,9.06,73058.8,-5.55,-6.39,-6.39,0,*5E
1508806866.08,19202,9.06,73092.5,-5.53,-6.51,-6.47,0,*5C
1508806867.31,19203,9.13,73102.5,-5.53,-6.51,-6.59,0,*52
1508806868.51,19204,9.06,73060.3,-5.55,-6.51,-6.59,0,*53
1508806869.71,19205,9.06,73066.5,-5.55,-6.59,-6.73,0,*52
1508806870.9,19206,9.06,73046.8,-5.55,-6.39,-6.39,0,*59
1508806872.09,19207,9.06,73046.5,-5.55,-6.39,-6.47,0,*51
1508806873.29,19208,9.06,73042.5,-5.55,-6.39,-6.39,0,*57
1508806874.48,19209,9.06,73044.0,-5.55,-6.31,-6.35,0,*52
1508806875.73,19210,9.06,73042.3,-5.55,-6.23,-6.23,0,*5E
1508806876.98,19211,9.13,73044.5,-5.53,-6.23,-6.31,0,*5A
1508806878.21,19212,9.06,73048.0,-5.53,-6.35,-6.35,0,*5A
1508806879.41,19213,9.06,73040.3,-5.55,-6.35,-6.39,0,*51
1508806880.63,19214,9.06,73052.3,-5.53,-6.31,-6.39,0,*54
1508806881.87,19215,9.06,73062.0,-5.53,-6.35,-6.31,0,*59
1508806883.07,19216,9.06,73048.0,-5.51,-6.31,-6.31,0,*5C
1508806884.3,19217,9.06,73070.8,-5.53,-6.35,-6.35,0,*5F
1508806885.54,19218,9.06,73038.8,-5.53,-6.35,-6.31,0,*54
1508806886.77,19219,9.06,73058.5,-5.53,-6.35,-6.35,0,*51
1508806888.0,19220,9.06,73058.3,-5.53,-6.35,-6.35,0,*5B
1508806889.23,19221,9.06,73060.5,-5.53,-6.31,-6.31,0,*5A
1508806890.45,19222,9.06,73052.8,-5.51,-6.27,-6.13,0,*5C
1508806891.69,19223,9.06,73056.8,-5.51,-6.27,-6.19,0,*57
1508806892.94,19224,9.06,73060.5,-5.53,-6.31,-6.23,0,*5C
1508806894.19,19225,9.06,73056.0,-5.51,-6.19,-6.27,0,*51
1508806895.44,19226,9.06,73056.5,-5.53,-6.23,-6.31,0,*5E
1508806896.67,19227,9.06,73052.0,-5.51,-6.23,-6.35,0,*59
1508806897.89,19228,9.06,73056.3,-5.51,-6.27,-6.31,0,*56
1508806899.12,19229,9.06,73062.3,-5.53,-6.35,-6.35,0,*52
1508806900.33,19230,9.06,73060.3,-5.51,-6.35,-6.43,0,*59
1508806901.53,19231,9.06,73070.5,-5.51,-6.35,-6.35,0,*59
1508806902.73,19232,9.06,73100.0,-5.51,-6.43,-6.47,0,*5E
1508806903.93,19233,9.06,73108.3,-5.51,-6.47,-6.55,0,*58
1508806905.13,19234,9.06,73092.3,-5.51,-6.43,-6.35,0,*5D
1508806906.33,19235,9.06,73070.3,-5.51,-6.43,-6.47,0,*59
1508806907.53,19236,9.06,73044.5,-5.51,-6.47,-6.55,0,*5D
1508806908.73,19237,9.06,73030.0,-5.51,-6.47,-6.47,0,*5F
1508806909.93,19238,9.06,73032.8,-5.51,-6.59,-6.59,0,*50
1508806911.18,19239,9.06,73044.3,-5.53,-6.73,-6.63,0,*52
1508806912.45,19240,9.06,73094.0,-5.53,-6.63,-6.63,0,*5D
1508806913.65,19241,9.06,73058.8,-5.51,-6.47,-6.47,0,*5E
1508806914.85,19242,9.06,73060.0,-5.51,-6.59,-6.59,0,*5D
1508806916.07,19243,9.06,73074.5,-5.53,-6.73,-6.73,0,*5E
1508806917.27,19244,9.06,73064.5,-5.51,-6.69,-6.73,0,*50
1508806918.47,19245,9.06,73046.5,-5.51,-6.81,-6.73,0,*57
1508806919.69,19246,9.06,73042.0,-5.53,-6.77,-6.77,0,*5B
1508806920.92,19247,9.06,73072.3,-5.53,-6.85,-6.85,0,*5A
1508806922.11,19248,9.06,73056.0,-5.51,-6.73,-6.73,0,*57
1508806923.34,19249,9.06,73088.5,-5.53,-6.73,-6.73,0,*54
1508806924.56,19250,9.06,73100.0,-5.53,-6.73,-6.73,0,*5C
1508806925.83,19251,9.06,73048.0,-5.53,-6.63,-6.63,0,*5D
1508806927.1,19252,9.06,73062.0,-5.53,-6.63,-6.63,0,*5E
1508806928.35,19253,9.06,73070.8,-5.53,-6.59,-6.63,0,*56
1508806929.61,19254,9.06,73076.0,-5.53,-6.59,-6.63,0,*51
1508806930.84,19255,9.06,73076.3,-5.53,-6.51,-6.59,0,*51
1508806932.04,19256,9.06,73064.5,-5.51,-6.55,-6.59,0,*54
1508806933.23,19257,9.06,73066.8,-5.51,-6.69,-6.69,0,*59
1508806934.42,19258,9.06,73064.8,-5.51,-6.69,-6.73,0,*5D
1508806935.65,19259,9.06,73076.8,-5.53,-6.73,-6.77,0,*51
1508806936.85,19260,9.06,73066.5,-5.51,-6.69,-6.81,0,*5B
1508806938.07,19261,9.06,73068.3,-5.53,-6.73,-6.77,0,*5A
1508806939.29,19262,9.06,73088.8,-5.53,-6.73,-6.73,0,*5D
1508806940.56,19263,9.06,73092.5,-5.53,-6.63,-6.63,0,*5C
1508806941.76,19264,9.06,73082.5,-5.51,-6.47,-6.47,0,*59
1508806942.96,19265,9.06,73072.5,-5.51,-6.55,-6.55,0,*58
1508806944.19,19266,9.06,73068.3,-5.51,-6.59,-6.63,0,*52
1508806945.44,19267,9.06,73076.3,-5.53,-6.73,-6.63,0,*59
1508806946.69,19268,9.06,73072.3,-5.53,-6.73,-6.63,0,*56
1508806947.91,19269,9.06,73074.5,-5.53,-6.73,-6.73,0,*56
1508806949.14,19270,9.06,73074.3,-5.53,-6.77,-6.85,0,*53
1508806950.37,19271,9.06,73072.5,-5.53,-6.77,-6.85,0,*52
1508806951.56,19272,9.06,73072.8,-5.51,-6.73,-6.59,0,*56
1508806952.75,19273,9.06,73076.5,-5.51,-6.69,-6.69,0,*5F
1508806953.98,19274,9.06,73074.3,-5.53,-6.73,-6.85,0,*53
1508806955.2,19275,9.06,73080.5,-5.53,-6.85,-6.85,0,*5B
1508806956.43,19276,9.06,73080.0,-5.53,-6.85,-6.89,0,*54
1508806957.65,19277,9.06,73090.8,-5.53,-6.85,-6.77,0,*54
1508806958.88,19278,9.06,73086.5,-5.53,-6.59,-6.73,0,*5E
1508806960.07,19279,9.06,73088.5,-5.51,-6.69,-6.73,0,*5E
1508806961.29,19280,9.06,73092.0,-5.53,-6.73,-6.73,0,*51
1508806962.51,19281,9.06,73098.0,-5.51,-6.63,-6.69,0,*58
1508806963.75,19282,9.06,73098.8,-5.53,-6.63,-6.73,0,*52
1508806965.0,19283,9.06,73102.8,-5.53,-6.73,-6.63,0,*53
1508806966.24,19284,9.06,73098.0,-5.53,-6.63,-6.73,0,*54
1508806967.49,19285,9.06,73094.3,-5.53,-6.73,-6.63,0,*55
1508806968.69,19286,9.06,73100.0,-5.51,-6.55,-6.59,0,*59
1508806969.89,19287,9.06,73090.8,-5.51,-6.59,-6.69,0,*57
1508806971.08,19288,9.06,73088.8,-5.51,-6.69,-6.69,0,*5B
1508806972.3,19289,9.06,73090.8,-5.53,-6.73,-6.73,0,*58
1508806973.53,19290,9.06,73082.3,-5.53,-6.73,-6.73,0,*50
1508806974.75,19291,9.06,73080.8,-5.53,-6.73,-6.85,0,*58
1508806975.97,19292,9.06,73080.8,-5.53,-6.73,-6.77,0,*56
1508806977.22,19293,9.06,73084.5,-5.53,-6.63,-6.73,0,*52
1508806978.47,19294,9.06,73076.8,-5.53,-6.77,-6.63,0,*51
1508806979.7,19295,9.06,73080.0,-5.53,-6.73,-6.73,0,*55
1508806980.92,19296,9.06,73086.3,-5.53,-6.73,-6.73,0,*56
1508806982.12,19297,9.06,73086.3,-5.51,-6.59,-6.59,0,*55
1508806983.34,19298,9.06,73078.5,-5.53,-6.73,-6.85,0,*51
1508806984.57,19299,9.06,73070.0,-5.53,-6.73,-6.77,0,*5D
1508806985.79,19300,9.06,73076.0,-5.53,-6.85,-6.85,0,*58
1508806987.01,19301,9.06,73082.8,-5.55,-6.73,-6.63,0,*5E
1508806988.23,19302,9.06,73078.8,-5.57,-6.69,-6.69,0,*5E
1508806989.43,19303,9.06,73080.0,-5.55,-6.51,-6.51,0,*5D
1508806990.65,19304,9.06,73070.3,-5.55,-6.63,-6.51,0,*5B
1508806991.86,19305,9.06,73086.8,-5.55,-6.63,-6.73,0,*5A
1508806993.08,19306,9.06,73076.3,-5.55,-6.63,-6.59,0,*51
1508806994.31,19307,9.06,73074.5,-5.53,-6.51,-6.39,0,*51
1508806995.53,19308,9.06,73082.5,-5.53,-6.39,-6.39,0,*50
1508806996.76,19309,9.06,73080.0,-5.53,-6.51,-6.51,0,*51
1508806997.95,19310,9.06,73078.8,-5.55,-6.39,-6.39,0,*5F
1508806999.15,19311,9.06,73080.3,-5.55,-6.51,-6.47,0,*59
1508807000.35,19312,9.06,73068.0,-5.55,-6.59,-6.47,0,*52
1508807001.55,19313,9.06,73078.8,-5.55,-6.59,-6.51,0,*54
1508807002.78,19314,9.06,73076.5,-5.57,-6.55,-6.43,0,*5E
1508807003.97,19315,9.06,73066.0,-5.55,-6.39,-6.47,0,*53
1508807005.17,19316,9.06,73072.0,-5.55,-6.59,-6.51,0,*51
1508807006.37,19317,9.06,73068.8,-5.55,-6.51,-6.51,0,*58
1508807007.6,19318,9.06,73074.3,-5.57,-6.55,-6.51,0,*51
1508807008.8,19319,9.06,73076.5,-5.55,-6.51,-6.47,0,*51
1508807010.01,19320,9.06,73072.3,-5.55,-6.51,-6.47,0,*5B
1508807011.23,19321,9.06,73078.3,-5.53,-6.59,-6.59,0,*5B
1508807012.43,19322,9.06,73074.3,-5.55,-6.59,-6.51,0,*56
1508807013.64,19323,9.06,73090.0,-5.55,-6.51,-6.51,0,*5F
1508807014.84,19324,9.06,73068.8,-5.55,-6.59,-6.59,0,*58
1508807016.06,19325,9.06,73082.3,-5.57,-6.77,-6.69,0,*54
1508807017.26,19326,9.06,73070.8,-5.55,-6.51,-6.47,0,*5D
1508807018.46,19327,9.06,73072.8,-5.55,-6.59,-6.59,0,*5B
1508807019.67,19328,9.06,73076.3,-5.55,-6.63,-6.59,0,*5D
1508807020.89,19329,9.06,73084.8,-5.55,-6.63,-6.55,0,*50
1508807022.16,19330,9.06,73066.5,-5.57,-6.63,-6.63,0,*5F
1508807023.36,19331,9.06,73074.0,-5.55,-6.51,-6.59,0,*54
1508807024.56,19332,9.06,73068.0,-5.55,-6.59,-6.51,0,*57
1508807025.76,19333,9.06,73072.8,-5.55,-6.51,-6.47,0,*59
1508807026.96,19334,9.06,73080.8,-5.55,-6.47,-6.47,0,*59
1508807028.19,19335,9.06,73074.3,-5.57,-6.55,-6.55,0,*5A
1508807029.43,19336,9.06,73064.5,-5.57,-6.63,-6.55,0,*5C
1508807030.66,19337,9.06,73080.3,-5.57,-6.55,-6.51,0,*5C
1508807031.85,19338,9.06,73066.3,-5.55,-6.47,-6.47,0,*55
1508807033.08,19339,9.06,73078.3,-5.57,-6.55,-6.51,0,*52
1508807034.27,19340,9.06,73078.3,-5.55,-6.39,-6.39,0,*5A
1508807035.47,19341,9.06,73072.8,-5.55,-6.39,-6.35,0,*57
1508807036.69,19342,9.06,73068.0,-5.57,-6.39,-6.31,0,*52
1508807037.89,19343,9.06,73082.8,-5.55,-6.31,-6.31,0,*59
1508807039.12,19344,9.06,73062.3,-5.55,-6.31,-6.19,0,*54
1508807040.32,19345,9.06,73054.5,-5.55,-6.35,-6.35,0,*5F
1508807041.52,19346,9.06,73082.0,-5.55,-6.51,-6.51,0,*5C
1508807042.72,19347,9.06,73070.8,-5.55,-6.35,-6.35,0,*5D
1508807043.93,19348,9.06,73082.0,-5.55,-6.35,-6.31,0,*56
1508807045.13,19349,9.06,73070.5,-5.55,-6.35,-6.35,0,*53
1508807046.33,19350,9.06,73076.3,-5.55,-6.35,-6.35,0,*5B
1508807047.53,19351,9.06,73082.5,-5.55,-6.39,-6.35,0,*56
1508807048.72,19352,9.06,73068.3,-5.55,-6.39,-6.35,0,*55
1508807049.92,19353,9.06,73064.3,-5.55,-6.39,-6.35,0,*54
1508807051.11,19354,9.06,73080.0,-5.55,-6.39,-6.39,0,*5F
1508807052.3,19355,9.06,73078.8,-5.55,-6.39,-6.39,0,*5E
1508807053.49,19356,9.06,73074.8,-5.55,-6.39,-6.39,0,*5D
1508807054.69,19357,9.06,73078.8,-5.55,-6.35,-6.35,0,*5C
1508807055.9,19358,9.06,73082.5,-5.55,-6.31,-6.31,0,*53
1508807057.11,19359,9.06,73086.8,-5.57,-6.39,-6.39,0,*50
1508807058.32,19360,9.06,73076.8,-5.55,-6.35,-6.35,0,*58
1508807059.52,19361,9.06,73068.5,-5.55,-6.35,-6.31,0,*5D
1508807060.72,19362,9.06,73076.5,-5.55,-6.31,-6.31,0,*5A
1508807061.92,19363,9.06,73080.3,-5.55,-6.47,-6.35,0,*5E
1508807063.12,19364,9.06,73082.3,-5.55,-6.47,-6.35,0,*59
1508807064.31,19365,9.06,73084.5,-5.55,-6.39,-6.47,0,*54
1508807065.53,19366,9.06,73080.3,-5.53,-6.47,-6.39,0,*51
1508807066.72,19367,9.06,73084.5,-5.55,-6.39,-6.39,0,*5F
1508807067.92,19368,9.06,73082.3,-5.55,-6.39,-6.35,0,*5C
1508807069.12,19369,9.06,73072.8,-5.55,-6.39,-6.35,0,*5D
1508807070.31,19370,9.06,73062.8,-5.55,-6.39,-6.39,0,*59
1508807071.5,19371,9.06,73038.5,-5.55,-6.39,-6.39,0,*58
1508807072.7,19372,9.06,73096.5,-5.55,-6.51,-6.59,0,*53
1508807073.93,19373,9.06,73096.8,-5.57,-6.81,-6.81,0,*58
1508807075.13,19374,9.06,73028.0,-5.55,-6.73,-6.73,0,*5D
1508807076.34,19375,9.06,73034.5,-5.55,-6.63,-6.73,0,*5D
1508807077.54,19376,9.06,73052.3,-5.55,-6.77,-6.77,0,*5F
1508807078.78,19377,9.06,73052.3,-5.53,-6.63,-6.73,0,*59
1508807080.01,19378,9.06,73050.5,-5.57,-6.77,-6.77,0,*53
1508807081.22,19379,9.06,73064.5,-5.55,-6.63,-6.77,0,*55
1508807082.45,19380,9.06,73052.0,-5.55,-6.55,-6.63,0,*53
1508807083.64,19381,9.06,73050.5,-5.55,-6.59,-6.51,0,*5F
1508807084.84,19382,9.06,73050.3,-5.55,-6.47,-6.39,0,*5D
1508807086.07,19383,9.06,73028.8,-5.57,-6.51,-6.55,0,*53
1508807087.27,19384,9.06,73036.3,-5.55,-6.59,-6.51,0,*5A
1508807088.47,19385,9.06,73054.8,-5.55,-6.51,-6.51,0,*53
1508807089.67,19386,9.06,73056.3,-5.55,-6.51,-6.51,0,*50
1508807090.87,19387,9.06,73054.8,-5.55,-6.51,-6.39,0,*5F
1508807092.07,19388,9.06,73054.5,-5.55,-6.51,-6.51,0,*5E
1508807093.28,19389,9.06,73062.3,-5.55,-6.51,-6.47,0,*58
1508807094.47,19390,9.06,73076.8,-5.55,-6.39,-6.47,0,*5E
1508807095.7,19391,9.06,73072.5,-5.57,-6.43,-6.51,0,*57
1508807096.92,19392,9.06,73072.3,-5.57,-6.43,-6.51,0,*54
1508807098.15,19393,9.06,73074.3,-5.57,-6.43,-6.51,0,*55
1508807099.34,19394,9.06,73076.8,-5.55,-6.39,-6.47,0,*5A
1508807100.54,19395,9.06,73080.0,-5.55,-6.47,-6.39,0,*5B
1508807101.73,19396,9.06,73080.0,-5.55,-6.47,-6.47,0,*51
1508807102.96,19397,9.06,73090.8,-5.53,-6.47,-6.47,0,*56
1508807104.16,19398,9.06,73078.0,-5.55,-6.47,-6.47,0,*5F
1508807105.36,19399,9.06,73086.5,-5.55,-6.51,-6.47,0,*59
1508807106.56,19400,9.06,73088.8,-5.55,-6.51,-6.47,0,*5E
1508807107.75,19401,9.06,73086.5,-5.55,-6.39,-6.47,0,*51
1508807108.95,19402,9.06,73090.3,-5.55,-6.39,-6.51,0,*55
1508807110.14,19403,9.06,73084.8,-5.55,-6.39,-6.39,0,*5A
1508807111.37,19404,9.06,73086.0,-5.53,-6.47,-6.47,0,*5B
1508807112.56,19405,9.06,73086.3,-5.55,-6.47,-6.39,0,*55
1508807113.78,19406,9.06,73074.0,-5.53,-6.39,-6.39,0,*59
1508807115.0,19407,9.06,73082.0,-5.53,-6.47,-6.39,0,*51
1508807116.22,19408,9.06,73082.0,-5.53,-6.39,-6.39,0,*57
1508807117.45,19409,9.06,73072.5,-5.53,-6.47,-6.39,0,*5F
1508807118.68,19410,9.06,73072.3,-5.53,-6.51,-6.47,0,*59
1508807119.9,19411,9.06,73082.5,-5.53,-6.47,-6.47,0,*5F
1508807121.1,19412,9.06,73080.5,-5.55,-6.39,-6.39,0,*5A
1508807122.32,19413,9.06,73084.3,-5.57,-6.55,-6.51,0,*5D
1508807123.52,19414,9.06,73086.5,-5.55,-6.51,-6.47,0,*5B
1508807124.72,19415,9.06,73080.8,-5.55,-6.47,-6.39,0,*54
1508807125.91,19416,9.06,73086.5,-5.55,-6.47,-6.47,0,*5E
1508807127.11,19417,9.06,73068.0,-5.55,-6.43,-6.43,0,*5F
1508807128.34,19418,9.06,73080.3,-5.55,-6.51,-6.63,0,*51
1508807129.54,19419,9.06,73074.0,-5.55,-6.51,-6.51,0,*51
1508807130.77,19420,9.06,73064.3,-5.53,-6.59,-6.59,0,*5D
1508807132.02,19421,9.06,73056.5,-5.53,-6.73,-6.63,0,*5D
1508807133.22,19422,9.06,73074.8,-5.55,-6.77,-6.85,0,*54
1508807134.44,19423,9.06,73068.0,-5.55,-6.73,-6.63,0,*59
1508807135.63,19424,9.06,73064.3,-5.55,-6.73,-6.73,0,*5F
1508807136.87,19425,9.06,73086.3,-5.55,-6.63,-6.63,0,*5E
1508807138.09,19426,9.06,73058.5,-5.55,-6.63,-6.59,0,*54
1508807139.3,19427,9.06,73072.8,-5.55,-6.63,-6.73,0,*5D
1508807140.53,19428,9.06,73064.3,-5.57,-6.89,-6.89,0,*51
1508807141.75,19429,9.06,73060.0,-5.57,-6.77,-6.69,0,*5F
1508807142.99,19430,9.06,73068.8,-5.55,-6.63,-6.63,0,*5A
1508807144.18,19431,9.06,73066.0,-5.55,-6.73,-6.73,0,*5B
1508807145.4,19432,9.06,73066.3,-5.57,-6.69,-6.69,0,*5A
1508807146.6,19433,9.06,73058.0,-5.55,-6.59,-6.59,0,*59
1508807147.79,19434,9.06,73090.3,-5.55,-6.73,-6.73,0,*5E
1508807149.03,19435,9.06,73070.0,-5.55,-6.63,-6.63,0,*5F
1508807150.22,19436,9.06,73086.5,-5.55,-6.73,-6.73,0,*5C
1508807151.42,19437,9.06,73062.0,-5.55,-6.73,-6.73,0,*5D
1508807152.62,19438,9.06,73082.0,-5.55,-6.59,-6.51,0,*5A
1508807153.81,19439,9.06,73084.5,-5.55,-6.39,-6.39,0,*53
1508807155.01,19440,9.06,73070.0,-5.55,-6.35,-6.35,0,*5D
1508807156.21,19441,9.06,73064.8,-5.55,-6.39,-6.47,0,*55
1508807157.42,19442,9.06,73062.8,-5.55,-6.63,-6.73,0,*5E
1508807158.64,19443,9.06,73054.5,-5.55,-6.73,-6.63,0,*5F
1508807159.86,19444,9.06,73078.8,-5.55,-6.63,-6.51,0,*58
1508807161.05,19445,9.06,73080.5,-5.55,-6.47,-6.39,0,*51
1508807162.24,19446,9.06,73080.3,-5.55,-6.39,-6.39,0,*5B
1508807163.44,19447,9.06,73080.3,-5.55,-6.47,-6.47,0,*5A
1508807164.66,19448,9.06,73072.5,-5.55,-6.59,-6.63,0,*5C
1508807165.86,19449,9.06,73076.0,-5.55,-6.73,-6.73,0,*54
1508807167.1,19450,9.06,73090.3,-5.55,-6.63,-6.63,0,*5C
1508807168.33,19451,9.06,73084.8,-5.53,-6.51,-6.59,0,*53
1508807169.6,19452,9.06,73084.8,-5.53,-6.63,-6.63,0,*58
1508807170.83,19453,9.06,73084.5,-5.53,-6.73,-6.73,0,*59
1508807172.05,19454,9.06,73090.5,-5.53,-6.85,-6.89,0,*52
1508807173.28,19455,9.06,73086.8,-5.53,-6.77,-6.77,0,*5F
1508807174.5,19456,9.06,73084.8,-5.53,-6.85,-6.89,0,*50
1508807175.7,19457,9.06,73080.5,-5.55,-6.89,-6.89,0,*5B
1508807176.89,19458,9.06,73078.3,-5.55,-6.77,-6.77,0,*54
1508807178.11,19459,9.06,73080.5,-5.55,-6.73,-6.63,0,*54
1508807179.31,19460,9.06,73106.0,-5.55,-6.73,-6.59,0,*57
1508807180.51,19461,9.06,73102.5,-5.55,-6.73,-6.73,0,*5E
1508807181.75,19462,9.06,73094.5,-5.55,-6.63,-6.63,0,*5D
1508807182.98,19463,9.06,73088.5,-5.53,-6.51,-6.47,0,*5D
1508807184.18,19464,9.06,73086.3,-5.55,-6.47,-6.51,0,*5C
1508807185.37,19465,9.06,73096.8,-5.55,-6.39,-6.39,0,*5A
1508807186.56,19466,9.06,73054.3,-5.55,-6.39,-6.47,0,*50
1508807187.76,19467,9.06,73046.8,-5.55,-6.47,-6.47,0,*58
1508807188.99,19468,9.06,73046.5,-5.53,-6.59,-6.51,0,*59
1508807190.23,19469,9.06,73040.8,-5.53,-6.63,-6.59,0,*59
1508807191.47,19470,9.06,73062.3,-5.53,-6.51,-6.51,0,*58
1508807192.69,19471,9.06,73042.0,-5.53,-6.47,-6.39,0,*50
1508807193.88,19472,9.06,73054.3,-5.55,-6.39,-6.39,0,*5C
1508807195.08,19473,9.06,73036.3,-5.55,-6.39,-6.47,0,*54
1508807196.27,19474,9.06,73048.3,-5.55,-6.39,-6.39,0,*5A
1508807197.46,19475,9.06,73052.8,-5.55,-6.39,-6.39,0,*5B
1508807198.65,19476,9.06,73046.8,-5.55,-6.47,-6.39,0,*51
1508807199.85,19477,9.06,73038.8,-5.55,-6.47,-6.51,0,*5E
1508807201.05,19478,9.06,73042.3,-5.55,-6.59,-6.59,0,*56
1508807202.25,19479,9.06,73078.0,-5.55,-6.59,-6.59,0,*57
1508807203.45,19480,9.06,73068.3,-5.55,-6.59,-6.51,0,*59
1508807204.67,19481,9.06,73062.3,-5.57,-6.51,-6.51,0,*52
1508807205.87,19482,9.06,73046.5,-5.55,-6.47,-6.39,0,*5A
1508807207.07,19483,9.06,73052.5,-5.55,-6.51,-6.47,0,*55
1508807208.29,19484,9.06,73048.8,-5.53,-6.39,-6.39,0,*53
1508807209.52,19485,9.06,73038.8,-5.53,-6.39,-6.35,0,*5E
1508807210.74,19486,9.06,73050.5,-5.53,-6.39,-6.35,0,*5D
1508807211.97,19487,9.06,73054.0,-5.53,-6.31,-6.31,0,*50
1508807213.22,19488,9.06,73054.0,-5.53,-6.31,-6.23,0,*5C
1508807214.45,19489,9.06,73060.0,-5.53,-6.35,-6.31,0,*5A
1508807215.7,19490,9.06,73060.8,-5.51,-6.19,-6.27,0,*59
1508807216.98,19491,9.06,73068.8,-5.53,-6.19,-6.19,0,*57
1508807218.23,19492,9.06,73064.0,-5.51,-6.27,-6.19,0,*5B
1508807219.46,19493,9.06,73072.3,-5.53,-6.35,-6.35,0,*55
1508807220.69,19494,9.06,73078.3,-5.53,-6.35,-6.35,0,*52
1508807221.92,19495,9.06,73084.3,-5.51,-6.31,-6.27,0,*56
1508807223.15,19496,9.06,73072.0,-5.53,-6.35,-6.35,0,*50
1508807224.35,19497,9.06,73070.5,-5.51,-6.31,-6.31,0,*53
1508807225.58,19498,9.06,73070.8,-5.53,-6.35,-6.39,0,*52
1508807226.78,19499,9.06,73074.3,-5.51,-6.31,-6.35,0,*59
1508807227.98,19500,9.06,73070.5,-5.51,-6.31,-6.35,0,*58
1508807229.2,19501,9.06,73080.3,-5.53,-6.47,-6.39,0,*56
1508807230.41,19502,9.06,73080.0,-5.51,-6.35,-6.35,0,*5E
1508807231.61,19503,9.06,73078.0,-5.51,-6.35,-6.35,0,*5F
1508807232.82,19504,9.06,73074.0,-5.51,-6.35,-6.35,0,*58
1508807234.02,19505,9.06,73078.8,-5.51,-6.43,-6.43,0,*59
1508807235.22,19506,9.06,73098.3,-5.51,-6.35,-6.35,0,*5A
1508807236.45,19507,9.06,73048.3,-5.53,-6.47,-6.47,0,*59
1508807237.65,19508,9.06,73058.0,-5.51,-6.47,-6.51,0,*53
1508807238.85,19509,9.06,73048.8,-5.51,-6.55,-6.47,0,*56
1508807240.05,19510,9.06,73044.0,-5.51,-6.43,-6.43,0,*5D
1508807241.28,19511,9.06,73042.8,-5.53,-6.51,-6.39,0,*50
1508807242.5,19512,9.06,73050.0,-5.53,-6.47,-6.39,0,*54
1508807243.72,19513,9.06,73046.8,-5.53,-6.39,-6.39,0,*5C
1508807244.92,19514,9.06,73056.0,-5.51,-6.35,-6.35,0,*59
1508807246.16,19515,9.06,73052.8,-5.53,-6.35,-6.35,0,*5A
1508807247.36,19516,9.06,73040.5,-5.51,-6.31,-6.31,0,*5B
1508807248.56,19517,9.06,73046.0,-5.51,-6.35,-6.43,0,*5B
1508807249.77,19518,9.06,73052.3,-5.51,-6.35,-6.43,0,*54
1508807250.99,19519,9.06,73052.3,-5.53,-6.47,-6.47,0,*56
1508807252.19,19520,9.06,73046.8,-5.51,-6.55,-6.47,0,*5D
1508807253.39,19521,9.06,73054.8,-5.51,-6.47,-6.35,0,*5A
1508807254.62,19522,9.06,73066.3,-5.53,-6.51,-6.39,0,*50
1508807255.82,19523,9.06,73056.5,-5.51,-6.47,-6.43,0,*59
1508807257.02,19524,9.06,73052.0,-5.51,-6.35,-6.35,0,*5A
1508807258.22,19525,9.06,73056.3,-5.51,-6.43,-6.43,0,*5B
1508807259.42,19526,9.06,73050.8,-5.51,-6.59,-6.59,0,*58
1508807260.62,19527,9.06,73044.8,-5.51,-6.47,-6.55,0,*5A
1508807261.85,19528,9.06,73052.3,-5.53,-6.51,-6.51,0,*54
1508807263.06,19529,9.06,73046.0,-5.51,-6.55,-6.55,0,*57
1508807264.25,19530,9.06,73056.5,-5.51,-6.47,-6.43,0,*5B
1508807265.45,19531,9.06,73044.5,-5.51,-6.43,-6.43,0,*5E
1508807266.68,19532,9.06,73040.5,-5.53,-6.59,-6.39,0,*59
1508807267.88,19533,9.06,73056.0,-5.51,-6.47,-6.47,0,*5C
1508807269.11,19534,9.06,73062.5,-5.53,-6.51,-6.51,0,*59
1508807270.31,19535,9.06,73056.8,-5.51,-6.47,-6.43,0,*5E
1508807271.55,19536,9.06,73064.5,-5.53,-6.63,-6.59,0,*52
1508807272.78,19537,9.06,73058.0,-5.53,-6.73,-6.73,0,*5A
1508807274.0,19538,9.06,73056.3,-5.53,-6.73,-6.73,0,*55
1508807275.23,19539,9.06,73060.8,-5.53,-6.59,-6.59,0,*54
1508807276.46,19540,9.06,73060.3,-5.53,-6.51,-6.51,0,*5A
1508807277.69,19541,9.06,73062.5,-5.53,-6.51,-6.51,0,*5B
1508807278.95,19542,9.06,73052.8,-5.53,-6.51,-6.63,0,*59
1508807280.15,19543,9.06,73052.5,-5.51,-6.55,-6.69,0,*54
1508807281.4,19544,9.06,73056.3,-5.53,-6.73,-6.63,0,*5F
1508807282.65,19545,9.06,73060.5,-5.53,-6.59,-6.63,0,*56
1508807283.9,19546,9.06,73074.8,-5.53,-6.59,-6.63,0,*55
1508807285.14,19547,9.06,73048.5,-5.53,-6.63,-6.73,0,*5C
1508807286.39,19548,9.06,73060.0,-5.53,-6.63,-6.59,0,*5B
1508807287.59,19549,9.06,73060.5,-5.51,-6.47,-6.55,0,*52
1508807288.82,19550,9.06,73064.0,-5.53,-6.51,-6.51,0,*5B
1508807290.05,19551,9.06,73064.3,-5.53,-6.59,-6.47,0,*55
1508807291.25,19552,9.06,73076.8,-5.51,-6.47,-6.47,0,*5B
1508807292.48,19553,9.06,73066.8,-5.53,-6.59,-6.59,0,*58
1508807293.7,19554,9.06,73070.5,-5.51,-6.47,-6.63,0,*5B
1508807294.93,19555,9.06,73070.8,-5.53,-6.51,-6.51,0,*5E
1508807296.13,19556,9.06,73068.3,-5.51,-6.43,-6.47,0,*5B
1508807297.37,19557,9.06,73074.5,-5.53,-6.51,-6.51,0,*5C
1508807298.59,19558,9.06,73070.8,-5.51,-6.51,-6.63,0,*50
1508807299.82,19559,9.06,73062.3,-5.53,-6.51,-6.73,0,*52
1508807301.01,19560,9.06,73070.0,-5.51,-6.69,-6.69,0,*5A
1508807302.2,19561,9.06,73058.5,-5.51,-6.69,-6.69,0,*5B
1508807303.4,19562,9.06,73060.5,-5.51,-6.59,-6.69,0,*5B
1508807304.67,19563,9.06,73066.5,-5.53,-6.63,-6.63,0,*5B
1508807305.87,19564,9.06,73064.3,-5.51,-6.55,-6.59,0,*52
1508807307.1,19565,9.06,73068.3,-5.53,-6.77,-6.77,0,*5D
1508807308.3,19566,9.06,73078.0,-5.51,-6.59,-6.59,0,*5C
1508807309.5,19567,9.06,73066.3,-5.51,-6.47,-6.55,0,*5E
1508807310.73,19568,9.06,73066.0,-5.53,-6.51,-6.59,0,*58